TimeEDT,TemperatureF,Dew PointF,Humidity,Sea Level PressureIn,VisibilityMPH,Wind Direction,Wind SpeedMPH,Gust SpeedMPH,PrecipitationIn,Events,Conditions,WindDirDegrees,DateUTC
12:14 AM,59.2,58.3,97,29.99,10.0,Calm,Calm,-,N/A,,Clear,0,2013-07-11 04:14:00
12:34 AM,58.3,57.7,98,29.99,10.0,Calm,Calm,-,N/A,,Scattered Clouds,0,2013-07-11 04:34:00
12:54 AM,59.0,58.3,97,30.00,10.0,WSW,4.6,-,N/A,,Mostly Cloudy,240,2013-07-11 04:54:00
1:14 AM,60.3,58.8,95,30.00,10.0,WSW,4.6,-,N/A,,Mostly Cloudy,250,2013-07-11 05:14:00
1:34 AM,59.9,58.1,94,30.00,10.0,WSW,4.6,-,N/A,,Mostly Cloudy,250,2013-07-11 05:34:00
1:54 AM,60.4,58.1,92,30.00,10.0,SW,3.5,-,N/A,,Mostly Cloudy,230,2013-07-11 05:54:00
2:14 AM,59.7,57.6,93,30.00,10.0,SW,3.5,-,N/A,,Mostly Cloudy,230,2013-07-11 06:14:00
2:34 AM,59.7,57.9,94,30.00,10.0,Calm,Calm,-,N/A,,Mostly Cloudy,0,2013-07-11 06:34:00
2:55 AM,58.5,57.2,96,30.00,10.0,Calm,Calm,-,N/A,,Scattered Clouds,0,2013-07-11 06:55:00
3:14 AM,58.6,57.0,94,30.01,10.0,Calm,Calm,-,N/A,,Scattered Clouds,0,2013-07-11 07:14:00
3:34 AM,58.1,57.7,99,30.01,10.0,Calm,Calm,-,N/A,,Clear,0,2013-07-11 07:34:00
3:55 AM,58.1,57.2,97,30.02,10.0,Calm,Calm,-,N/A,,Clear,0,2013-07-11 07:55:00
4:14 AM,57.6,57.2,99,30.02,10.0,South,3.5,-,N/A,,Clear,170,2013-07-11 08:14:00
4:34 AM,57.0,57.0,100,30.02,10.0,SSE,3.5,-,N/A,,Clear,150,2013-07-11 08:34:00
4:55 AM,56.7,56.7,100,30.03,10.0,Calm,Calm,-,N/A,,Clear,0,2013-07-11 08:55:00
5:14 AM,55.4,55.4,100,30.02,7.0,Calm,Calm,-,N/A,,Clear,0,2013-07-11 09:14:00
5:34 AM,56.3,56.3,100,30.03,10.0,Calm,Calm,-,N/A,,Clear,0,2013-07-11 09:34:00
5:54 AM,55.0,55.0,100,30.04,7.0,Calm,Calm,-,N/A,,Clear,0,2013-07-11 09:54:00
6:14 AM,54.7,54.7,100,30.05,5.0,Calm,Calm,-,N/A,,Clear,0,2013-07-11 10:14:00
6:34 AM,54.7,54.7,100,30.06,7.0,Calm,Calm,-,N/A,,Clear,0,2013-07-11 10:34:00
6:54 AM,56.1,56.1,100,30.07,10.0,Calm,Calm,-,N/A,,Clear,0,2013-07-11 10:54:00
7:14 AM,60.8,58.8,93,30.07,10.0,North,4.6,-,N/A,,Clear,10,2013-07-11 11:14:00
7:34 AM,62.6,58.8,87,30.07,10.0,North,6.9,-,N/A,,Clear,10,2013-07-11 11:34:00
7:54 AM,62.6,58.3,86,30.08,10.0,North,6.9,-,N/A,,Clear,360,2013-07-11 11:54:00
8:14 AM,62.8,58.3,85,30.09,10.0,North,6.9,-,N/A,,Clear,360,2013-07-11 12:14:00
8:34 AM,63.1,58.3,84,30.09,10.0,NNE,6.9,-,N/A,,Clear,20,2013-07-11 12:34:00
8:54 AM,63.7,58.6,84,30.10,10.0,North,6.9,-,N/A,,Clear,350,2013-07-11 12:54:00
9:15 AM,64.4,59.2,83,30.10,10.0,North,6.9,-,N/A,,Clear,10,2013-07-11 13:15:00
9:34 AM,64.8,58.3,79,30.11,10.0,North,9.2,-,N/A,,Clear,350,2013-07-11 13:34:00
9:54 AM,64.9,56.8,75,30.12,10.0,North,10.4,-,N/A,,Clear,360,2013-07-11 13:54:00
10:14 AM,65.5,56.8,74,30.12,10.0,North,10.4,-,N/A,,Clear,350,2013-07-11 14:14:00
10:34 AM,65.7,57.2,74,30.12,10.0,North,9.2,-,N/A,,Clear,360,2013-07-11 14:34:00
10:55 AM,65.5,57.2,75,30.13,10.0,North,10.4,-,N/A,,Clear,360,2013-07-11 14:55:00
11:14 AM,65.5,57.2,75,30.13,10.0,North,10.4,-,N/A,,Clear,350,2013-07-11 15:14:00
11:34 AM,66.0,56.7,72,30.14,10.0,North,9.2,-,N/A,,Clear,10,2013-07-11 15:34:00
11:55 AM,66.6,55.8,68,30.15,10.0,North,10.4,-,N/A,,Clear,360,2013-07-11 15:55:00
12:14 PM,66.6,55.8,68,30.14,10.0,North,9.2,-,N/A,,Clear,350,2013-07-11 16:14:00
12:34 PM,66.4,55.8,69,30.14,10.0,North,9.2,-,N/A,,Clear,360,2013-07-11 16:34:00
12:55 PM,66.7,56.1,69,30.15,10.0,North,9.2,-,N/A,,Clear,350,2013-07-11 16:55:00
1:14 PM,66.2,55.9,69,30.15,10.0,North,6.9,-,N/A,,Clear,350,2013-07-11 17:14:00
1:34 PM,66.2,56.1,70,30.14,10.0,North,10.4,-,N/A,,Clear,350,2013-07-11 17:34:00
1:54 PM,66.4,56.5,70,30.14,10.0,NNW,8.1,-,N/A,,Clear,340,2013-07-11 17:54:00
2:14 PM,67.5,57.2,70,30.14,10.0,NNW,10.4,-,N/A,,Clear,330,2013-07-11 18:14:00
2:34 PM,67.1,56.1,68,30.14,10.0,NNW,9.2,-,N/A,,Clear,330,2013-07-11 18:34:00
2:54 PM,67.1,55.8,67,30.14,10.0,NNW,9.2,-,N/A,,Clear,340,2013-07-11 18:54:00
3:14 PM,68.0,54.7,62,30.14,10.0,NNW,9.2,-,N/A,,Clear,340,2013-07-11 19:14:00
3:34 PM,68.4,54.7,62,30.14,10.0,NW,9.2,-,N/A,,Clear,320,2013-07-11 19:34:00
3:54 PM,68.5,53.4,58,30.14,10.0,NNW,8.1,-,N/A,,Clear,340,2013-07-11 19:54:00
4:14 PM,69.3,53.8,58,30.14,10.0,NNW,8.1,-,N/A,,Clear,340,2013-07-11 20:14:00
4:34 PM,69.3,52.2,54,30.14,10.0,NNW,8.1,-,N/A,,Clear,340,2013-07-11 20:34:00
4:54 PM,70.2,51.6,52,30.14,10.0,NNW,6.9,-,N/A,,Clear,340,2013-07-11 20:54:00
5:15 PM,70.9,51.6,50,30.13,10.0,NNW,6.9,-,N/A,,Clear,330,2013-07-11 21:15:00
5:34 PM,70.3,50.7,50,30.13,10.0,NNW,6.9,-,N/A,,Clear,330,2013-07-11 21:34:00
5:54 PM,70.7,50.5,49,30.13,10.0,NW,5.8,-,N/A,,Clear,320,2013-07-11 21:54:00
6:15 PM,70.9,53.1,53,30.12,10.0,NW,5.8,-,N/A,,Clear,320,2013-07-11 22:15:00
6:34 PM,70.0,51.4,52,30.12,10.0,NW,4.6,-,N/A,,Clear,320,2013-07-11 22:34:00
6:54 PM,70.3,54.0,56,30.12,10.0,West,6.9,-,N/A,,Clear,280,2013-07-11 22:54:00
7:15 PM,70.3,55.2,59,30.12,10.0,NW,5.8,-,N/A,,Clear,310,2013-07-11 23:15:00
7:34 PM,69.4,56.1,62,30.12,10.0,WNW,6.9,-,N/A,,Clear,290,2013-07-11 23:34:00
7:54 PM,68.7,56.8,66,30.12,10.0,NW,4.6,-,N/A,,Clear,310,2013-07-11 23:54:00
8:14 PM,68.9,57.0,66,30.12,10.0,West,3.5,-,N/A,,Clear,270,2013-07-12 00:14:00
8:34 PM,68.2,54.7,62,30.12,10.0,Calm,Calm,-,N/A,,Clear,0,2013-07-12 00:34:00
8:54 PM,66.4,55.9,69,30.12,10.0,Calm,Calm,-,N/A,,Clear,0,2013-07-12 00:54:00
9:14 PM,65.3,56.7,74,30.12,10.0,Calm,Calm,-,N/A,,Clear,0,2013-07-12 01:14:00
9:34 PM,63.0,57.0,81,30.12,5.0,Calm,Calm,-,N/A,,Haze,0,2013-07-12 01:34:00
9:54 PM,61.3,57.2,86,30.12,2.5,Calm,Calm,-,N/A,,Clear,0,2013-07-12 01:54:00
10:14 PM,59.5,57.4,93,30.13,10.0,Calm,Calm,-,N/A,,Clear,0,2013-07-12 02:14:00
10:34 PM,58.6,57.2,95,30.13,10.0,Calm,Calm,-,N/A,,Clear,0,2013-07-12 02:34:00
10:54 PM,57.9,56.8,96,30.13,10.0,Calm,Calm,-,N/A,,Clear,0,2013-07-12 02:54:00
11:14 PM,58.1,57.0,96,30.13,10.0,Calm,Calm,-,N/A,,Clear,0,2013-07-12 03:14:00
11:34 PM,57.2,56.3,97,30.13,10.0,SSE,3.5,-,N/A,,Clear,160,2013-07-12 03:34:00
11:54 PM,56.8,56.1,97,30.13,10.0,Calm,Calm,-,N/A,,Clear,0,2013-07-12 03:54:00